| time (UTC) | temp C | wind direction | speed KPH | gust KPH | rain 1hr cm | rain 24hr cm | rain mn cm | humidity % | barometer mb |
| 20260507081205 | 11 | 315 | 0.0 | 4.8 | 0.00 | 0.00 | 0.00 | 16 | 1024.6 |
| 20260507075205 | 11 | 292 | 0.0 | 0.0 | 0.00 | 0.00 | 0.00 | 16 | 1024.6 |
| 20260507074205 | 11 | 292 | 0.0 | 0.0 | 0.00 | 0.00 | 0.00 | 16 | 1025.6 |
| 20260507062205 | 12 | 0 | 0.0 | 0.0 | 0.00 | 0.00 | 0.00 | 15 | 1025.6 |
| 20260507061205 | 12 | 0 | 0.0 | 0.0 | 0.00 | 0.00 | 0.00 | 15 | 1025.6 |
| 20260507053205 | 12 | 0 | 0.0 | 0.0 | 0.00 | 0.00 | 0.00 | 15 | 1025.5 |
| 20260507050205 | 13 | 0 | 0.0 | 0.0 | 0.00 | 0.00 | 0.10 | 15 | 1026.4 |
| 20260507045206 | 13 | 0 | 0.0 | 0.0 | 0.00 | 0.00 | 0.10 | 15 | 1026.4 |
| 20260507040206 | 13 | 68 | 0.0 | 6.4 | 0.00 | 0.00 | 0.10 | 15 | 1024.3 |
| 20260507033205 | 13 | 338 | 1.6 | 6.4 | 0.00 | 0.00 | 0.10 | 15 | 1023.2 |
| 20260507031205 | 13 | 45 | 0.0 | 6.4 | 0.00 | 0.00 | 0.10 | 14 | 1023.2 |
| 20260507025206 | 14 | 22 | 1.6 | 4.8 | 0.00 | 0.00 | 0.10 | 14 | 1023.1 |
| 20260507024205 | 14 | 22 | 1.6 | 6.4 | 0.00 | 0.00 | 0.10 | 14 | 1024.2 |
| 20260507020205 | 15 | 68 | 3.2 | 3.2 | 0.00 | 0.00 | 0.10 | 14 | 1024.1 |
| 20260507014204 | 15 | 45 | 0.0 | 4.8 | 0.00 | 0.00 | 0.10 | 14 | 1023.0 |
| 20260506225205 | 18 | 22 | 0.0 | 6.4 | 0.00 | 0.00 | 0.10 | 13 | 1022.5 |
| 20260506224205 | 18 | 68 | 4.8 | 6.4 | 0.00 | 0.00 | 0.10 | 13 | 1021.4 |
| 20260506223206 | 18 | 45 | 0.0 | 9.7 | 0.00 | 0.00 | 0.10 | 13 | 1021.4 |
| 20260506222205 | 18 | 68 | 3.2 | 8.0 | 0.00 | 0.00 | 0.10 | 13 | 1021.4 |
| 20260506221204 | 18 | 112 | 0.0 | 14.5 | 0.00 | 0.00 | 0.10 | 12 | 1021.3 |
| 20260506220205 | 18 | 22 | 4.8 | 14.5 | 0.00 | 0.00 | 0.10 | 12 | 1021.3 |
| 20260506215205 | 19 | 45 | 3.2 | 11.3 | 0.00 | 0.00 | 0.10 | 12 | 1021.3 |
| 20260506214204 | 19 | 45 | 0.0 | 11.3 | 0.00 | 0.00 | 0.10 | 12 | 1021.3 |
| 20260506212205 | 19 | 112 | 0.0 | 12.9 | 0.00 | 0.00 | 0.10 | 12 | 1021.2 |
| 20260506210205 | 19 | 45 | 9.7 | 14.5 | 0.00 | 0.00 | 0.10 | 12 | 1021.3 |
| 20260506205206 | 19 | 22 | 6.4 | 14.5 | 0.00 | 0.00 | 0.10 | 12 | 1021.3 |
| 20260506204205 | 20 | 22 | 3.2 | 9.7 | 0.00 | 0.00 | 0.10 | 12 | 1021.2 |
| 20260506203205 | 20 | 45 | 6.4 | 12.9 | 0.00 | 0.00 | 0.10 | 12 | 1021.2 |
| 20260506202205 | 19 | 338 | 8.0 | 14.5 | 0.00 | 0.00 | 0.10 | 12 | 1021.2 |
| 20260506201204 | 20 | 45 | 8.0 | 12.9 | 0.00 | 0.00 | 0.10 | 12 | 1022.3 |
| 20260506200206 | 20 | 45 | 9.7 | 17.7 | 0.00 | 0.00 | 0.10 | 12 | 1022.2 |
| 20260506195205 | 18 | 68 | 4.8 | 17.7 | 0.00 | 0.00 | 0.10 | 12 | 1022.4 |
| 20260506194205 | 19 | 68 | 9.7 | 12.9 | 0.00 | 0.00 | 0.10 | 12 | 1022.4 |
| 20260506193205 | 19 | 90 | 6.4 | 12.9 | 0.00 | 0.00 | 0.10 | 12 | 1022.3 |
| 20260506192205 | 19 | 338 | 8.0 | 12.9 | 0.00 | 0.00 | 0.10 | 12 | 1022.3 |
| 20260506190206 | 19 | 68 | 11.3 | 19.3 | 0.00 | 0.00 | 0.10 | 12 | 1022.4 |
| 20260506184205 | 18 | 22 | 8.0 | 12.9 | 0.00 | 0.00 | 0.10 | 13 | 1023.6 |
| 20260506183205 | 18 | 68 | 6.4 | 9.7 | 0.00 | 0.00 | 0.10 | 13 | 1023.5 |
| 20260506182206 | 18 | 90 | 3.2 | 16.1 | 0.00 | 0.00 | 0.10 | 13 | 1023.5 |
| 20260506175205 | 18 | 22 | 8.0 | 12.9 | 0.00 | 0.00 | 0.10 | 13 | 1023.5 |
| 20260506174206 | 18 | 68 | 8.0 | 20.9 | 0.00 | 0.00 | 0.10 | 13 | 1023.5 |
| 20260506173205 | 17 | 22 | 8.0 | 20.9 | 0.00 | 0.00 | 0.10 | 13 | 1024.7 |
| 20260506172205 | 17 | 68 | 9.7 | 17.7 | 0.00 | 0.00 | 0.10 | 13 | 1024.7 |
| 20260506170205 | 16 | 22 | 9.7 | 11.3 | 0.00 | 0.00 | 0.10 | 14 | 1023.8 |
| 20260506165206 | 16 | 0.0 | 0.0 | 0.00 | 0.00 | 0.10 | 14 | 1023.9 | |
| 20260506164205 | 16 | 0.0 | 0.0 | 0.00 | 0.00 | 0.10 | 14 | 1023.8 | |
| 20260506163205 | 16 | 0.0 | 0.0 | 0.00 | 0.00 | 0.10 | 14 | 1023.9 | |
| 20260506162205 | 15 | 0.0 | 0.0 | 0.00 | 0.00 | 0.10 | 14 | 1024.0 | |
| 20260506161205 | 15 | 0.0 | 0.0 | 0.00 | 0.00 | 0.10 | 14 | 1023.0 | |
| 20260506155205 | 15 | 68 | 8.0 | 8.0 | 0.00 | 0.00 | 0.10 | 14 | 1023.0 |
| 20260506154205 | 14 | 68 | 8.0 | 8.0 | 0.00 | 0.00 | 0.10 | 14 | 1023.1 |
| 20260506153205 | 14 | 0.0 | 0.0 | 0.00 | 0.00 | 0.10 | 14 | 1024.2 | |
| 20260506152205 | 13 | 0.0 | 0.0 | 0.00 | 0.00 | 0.10 | 14 | 1024.2 | |
| 20260506151205 | 13 | 0.0 | 0.0 | 0.00 | 0.00 | 0.10 | 15 | 1024.3 | |
| 20260506150206 | 13 | 0.0 | 6.4 | 0.00 | 0.00 | 0.10 | 15 | 1023.3 | |
| 20260506145206 | 12 | 45 | 8.0 | 6.4 | 0.00 | 0.00 | 0.10 | 15 | 1023.3 |
| 20260506144205 | 12 | 45 | 8.0 | 6.4 | 0.00 | 0.00 | 0.10 | 15 | 1024.5 |
| 20260506143205 | 11 | 0.0 | 0.0 | 0.00 | 0.00 | 0.10 | 16 | 1024.6 | |
| 20260506142205 | 11 | 0.0 | 0.0 | 0.00 | 0.00 | 0.10 | 16 | 1024.7 | |
| 20260506140205 | 10 | 0.0 | 0.0 | 0.00 | 0.00 | 0.10 | 16 | 1023.7 | |
| 20260506135205 | 10 | 0.0 | 0.0 | 0.00 | 0.00 | 0.10 | 16 | 1023.8 | |
| 20260506134205 | 9 | 0.0 | 0.0 | 0.00 | 0.00 | 0.10 | 16 | 1024.9 | |
| 20260506133205 | 9 | 0.0 | 0.0 | 0.00 | 0.00 | 0.10 | 16 | 1023.9 | |
| 20260506132205 | 9 | 0.0 | 4.8 | 0.00 | 0.00 | 0.10 | 16 | 1023.9 | |
| 20260506131206 | 9 | 22 | 4.8 | 4.8 | 0.00 | 0.00 | 0.10 | 19 | 1024.0 |
| 20260506130205 | 8 | 22 | 4.8 | 0.0 | 0.00 | 0.00 | 0.10 | 19 | 1024.0 |
| 20260506124206 | 8 | 0.0 | 0.0 | 0.00 | 0.00 | 0.10 | 17 | 1025.1 | |
| 20260506123204 | 8 | 0.0 | 0.0 | 0.00 | 0.00 | 0.10 | 17 | 1024.1 | |
| 20260506122204 | 8 | 0.0 | 0.0 | 0.00 | 0.00 | 0.10 | 17 | 1024.1 | |
| 20260506121205 | 8 | 0.0 | 0.0 | 0.00 | 0.00 | 0.10 | 17 | 1024.1 | |
| 20260506120205 | 8 | 0.0 | 0.0 | 0.00 | 0.00 | 0.10 | 17 | 1024.1 | |
| 20260506115206 | 8 | 0.0 | 0.0 | 0.00 | 0.00 | 0.10 | 17 | 1024.1 | |
| 20260506113206 | 8 | 0.0 | 0.0 | 0.00 | 0.00 | 0.10 | 17 | 1022.0 | |
| 20260506112205 | 8 | 0.0 | 0.0 | 0.00 | 0.00 | 0.10 | 17 | 1022.0 | |
| 20260506111205 | 8 | 0.0 | 0.0 | 0.00 | 0.00 | 0.10 | 17 | 1023.0 | |
| 20260506110205 | 8 | 0.0 | 0.0 | 0.00 | 0.00 | 0.10 | 17 | 1023.0 | |
| 20260506105205 | 8 | 0.0 | 0.0 | 0.00 | 0.00 | 0.10 | 17 | 1023.0 | |
| 20260506104205 | 8 | 0.0 | 0.0 | 0.00 | 0.00 | 0.10 | 17 | 1023.0 | |
| 20260506103205 | 8 | 0.0 | 0.0 | 0.00 | 0.00 | 0.10 | 17 | 1023.0 | |
| 20260506102205 | 8 | 0.0 | 0.0 | 0.00 | 0.00 | 0.10 | 17 | 1023.0 | |
| 20260506101206 | 8 | 0.0 | 0.0 | 0.00 | 0.00 | 0.10 | 17 | 1023.0 | |
| 20260506094204 | 8 | 0.0 | 0.0 | 0.00 | 0.00 | 0.10 | 17 | 1023.0 | |
| 20260506093206 | 8 | 0.0 | 0.0 | 0.00 | 0.00 | 0.10 | 17 | 1023.0 | |
| 20260506092205 | 8 | 0.0 | 0.0 | 0.00 | 0.00 | 0.10 | 17 | 1023.0 | |
| 20260506091205 | 8 | 0.0 | 0.0 | 0.00 | 0.00 | 0.10 | 17 | 1021.9 | |
| 20260506085206 | 8 | 0.0 | 0.0 | 0.00 | 0.00 | 0.10 | 17 | 1020.9 |